Theta_e
302 319 329 336 335 334 333 334 332 331 331 331 329 332 331 337 339 340 342 345 347 345 342 341 338 334 331 331 323 319 320 317 319 316 314 314 315 314 315 317 317 318 319
299 308 326 333 333 332 332 332 331 330 331 333 333 335 337 340 341 343 345 347 343 342 340 336 331 327 324 327 323 320 316 315 314 315 311 310 313 314 313 314 315 315 317
299 310 328 332 332 332 331 332 331 329 331 334 339 340 340 338 338 337 338 338 340 339 335 330 327 324 323 320 320 319 317 313 313 313 312 305 306 309 313 313 313 314 314
300 308 326 329 331 332 334 334 333 333 334 340 338 338 337 335 337 334 331 330 332 330 328 326 324 321 319 319 319 317 316 315 311 311 311 310 310 308 307 311 312 313 313
301 309 320 330 334 333 335 336 335 337 340 341 340 339 337 334 330 328 326 324 324 325 324 322 320 318 317 316 316 314 314 313 312 311 309 310 308 308 306 305 309 312 312
299 311 319 331 332 334 336 336 336 340 341 341 341 339 334 330 326 324 323 321 321 321 320 319 318 317 317 316 315 314 313 312 312 311 310 309 308 309 308 307 307 307 311
297 314 320 323 331 332 333 335 336 336 339 341 339 337 334 331 328 324 322 319 318 317 317 317 316 316 316 316 315 313 313 313 312 312 311 311 310 310 309 309 307 306 309
301 316 322 326 328 326 330 334 336 334 339 340 338 335 332 330 328 325 322 320 318 317 317 316 317 317 316 315 314 313 313 313 313 312 311 309 310 311 311 310 309 306 306
302 310 326 324 328 324 326 332 335 335 334 339 337 333 331 329 325 322 321 318 317 316 317 317 316 316 316 315 314 313 313 313 311 309 308 306 305 307 308 309 309 307 303
300 307 319 326 325 326 325 332 335 334 328 331 337 332 329 326 322 320 318 317 317 317 316 315 316 316 315 314 314 313 312 309 308 306 306 304 302 302 305 306 308 308 306
300 302 308 326 325 326 324 327 331 332 326 332 334 330 326 323 321 319 318 316 316 315 315 315 315 315 314 314 313 313 311 309 308 307 304 302 301 300 303 305 306 307 307
299 301 306 324 327 326 324 324 326 330 327 329 333 328 324 322 319 318 316 316 315 315 315 316 316 315 314 314 314 313 311 308 305 303 301 300 302 301 302 303 304 304 306
301 303 312 323 328 326 323 324 324 326 332 331 329 324 322 321 320 317 315 315 314 314 315 316 316 315 314 314 314 313 310 306 304 301 300 300 301 302 302 303 304 304 305
302 303 310 323 328 328 325 325 325 331 331 328 326 322 321 320 318 316 314 313 314 313 314 315 316 315 314 314 313 312 307 305 303 301 301 302 302 303 303 304 305 305 305
302 305 313 325 329 330 331 328 326 329 328 325 322 321 320 318 315 314 314 313 313 313 314 313 313 313 314 311 309 308 305 304 303 301 300 303 306 305 305 306 306 306 304
302 305 311 328 330 332 332 330 330 329 327 324 321 320 318 316 315 313 314 312 311 311 311 311 311 311 311 303 305 306 305 305 300 298 298 299 300 299 300 302 304 306 305
303 305 309 327 331 332 331 331 330 328 325 323 319 318 317 315 314 313 311 310 309 309 308 307 308 307 308 302 301 302 302 298 297 297 298 297 296 298 299 300 301 301 302
305 305 310 322 332 330 328 327 325 324 322 319 317 316 315 313 312 311 310 308 307 306 306 304 304 304 304 301 300 299 298 297 297 297 297 297 297 298 298 300 300 300 300
307 308 313 320 328 325 324 323 322 321 319 318 317 316 314 312 310 308 307 306 305 304 303 302 301 302 301 300 297 297 297 297 297 297 298 297 298 295 295 299 299 299 299
309 310 317 325 325 323 323 322 320 318 317 318 316 315 314 312 309 307 305 305 305 302 301 298 300 301 301 298 295 297 296 296 296 296 297 296 298 294 294 299 298 298 297
310 313 318 322 323 323 322 319 318 317 318 317 316 315 314 311 309 306 304 303 301 298 296 295 296 300 302 300 295 294 298 297 295 296 296 298 294 293 293 294 298 297 297
313 314 319 322 322 322 322 318 317 318 317 315 314 313 312 310 308 305 303 300 297 295 292 292 293 295 299 297 295 294 294 295 297 297 297 296 293 293 293 295 292 292 295
314 315 319 319 320 322 321 318 315 317 315 312 312 311 311 310 308 305 300 296 295 294 292 293 293 293 295 297 295 294 293 294 295 297 295 293 292 292 294 293 293 294 295
313 316 319 319 317 319 318 315 314 314 313 312 310 310 309 308 308 304 301 297 295 294 293 293 291 291 292 293 293 295 297 297 298 297 296 295 294 293 293 294 294 294 294
314 317 319 318 316 316 315 315 314 314 312 311 310 309 308 308 307 303 300 298 297 296 295 294 292 291 291 292 291 293 296 296 295 294 295 294 293 293 293 292 292 293 293
316 316 319 316 316 315 315 315 314 314 312 310 309 308 307 303 301 300 297 292 295 294 292 291 292 291 291 289 290 291 291 290 291 293 292 291 291 291 291 291 291 291 291
Wind_Speed
13 9 10 7 11 8 14 14 11 8 8 6 5 4 5 3 3 3 6 6 5 6 6 4 4 3 4 4 4 4 8 5 2 4 4 4 5 6 4 3 4 4 3
9 12 7 10 13 11 13 11 12 8 8 7 6 3 5 3 3 3 4 5 7 6 5 5 4 4 4 5 4 4 4 2 2 3 2 1 2 3 4 3 4 4 2
11 10 8 11 10 8 9 11 12 9 8 7 5 5 6 5 3 3 4 3 6 5 6 5 4 4 3 4 4 4 5 3 3 4 3 2 2 1 1 2 3 4 3
10 11 10 10 11 13 13 14 14 11 8 11 8 12 7 7 3 4 4 4 4 5 5 4 4 5 3 4 3 3 2 4 4 2 4 4 3 3 1 1 1 1 2
12 13 13 15 17 16 17 15 15 13 10 11 13 10 9 5 6 7 9 6 4 5 5 5 5 5 4 4 5 5 5 3 3 2 2 3 4 3 2 1 2 2 1
9 12 16 14 14 16 16 16 18 11 13 12 13 13 15 13 10 8 8 5 4 4 5 5 5 5 5 5 4 5 6 5 5 4 3 2 2 1 2 1 1 2 2
8 10 9 13 13 16 16 17 20 15 15 16 15 15 16 19 18 14 9 10 6 4 5 5 5 4 6 5 5 7 7 6 6 5 5 4 4 2 2 1 1 2 2
8 9 13 16 15 16 18 19 25 20 19 19 18 15 17 12 10 10 9 8 7 7 6 7 6 6 6 5 5 6 6 7 7 8 7 5 4 3 2 2 1 1 2
7 9 12 15 15 15 20 20 22 19 17 18 14 14 13 13 15 12 9 8 9 7 8 9 8 7 5 6 6 6 7 8 6 6 7 5 3 4 3 3 0 1 2
6 5 9 12 13 15 17 19 20 21 14 13 13 12 12 12 12 13 12 12 10 9 10 9 9 7 6 6 7 7 6 9 5 6 6 5 2 3 3 3 2 2 1
11 6 10 11 13 12 14 17 17 18 14 12 12 14 10 13 11 12 11 12 11 11 11 10 10 8 8 7 7 7 9 10 8 7 6 5 3 3 4 2 2 3 1
9 6 12 12 15 15 14 16 13 14 13 11 10 12 14 14 11 12 12 13 12 11 11 10 9 9 8 8 9 8 8 9 8 7 5 5 3 4 3 4 3 2 2
11 9 7 12 17 17 15 15 13 12 13 14 11 11 12 13 13 13 13 12 12 11 10 10 9 9 8 8 8 9 10 9 8 6 5 3 3 4 3 3 3 2 2
10 8 10 12 16 17 18 15 16 16 15 17 16 15 14 14 12 13 14 13 12 13 11 10 9 8 7 9 9 10 10 8 8 6 5 3 4 5 4 3 3 2 3
11 8 15 12 16 18 18 17 19 17 17 17 14 15 13 12 14 14 13 13 12 10 10 10 9 8 7 7 10 10 10 9 7 5 4 4 7 8 4 2 3 3 2
12 9 13 14 17 17 18 21 20 20 18 17 17 14 15 14 13 13 14 13 11 11 11 10 10 8 5 13 14 11 9 8 6 5 4 5 8 9 8 7 3 2 1
14 11 12 13 15 17 16 19 19 16 16 17 19 18 17 15 14 14 14 13 12 11 10 10 9 8 6 14 14 14 8 7 6 5 4 5 5 7 5 6 5 5 7
15 11 10 11 14 14 16 16 17 17 17 17 18 17 17 15 15 14 14 12 10 11 10 9 9 9 5 13 15 14 10 7 6 5 6 5 6 6 4 3 4 5 5
12 11 8 11 15 17 17 18 17 16 17 18 20 20 19 18 16 15 12 11 11 10 8 9 9 10 6 13 15 12 9 7 6 5 5 5 5 5 3 5 4 5 7
11 10 7 6 14 17 19 20 18 18 18 18 19 19 18 19 17 16 13 10 11 9 8 8 5 7 9 11 13 11 7 7 6 4 5 8 4 4 4 5 3 6 5
15 8 7 8 13 18 20 19 18 18 16 16 15 16 17 17 17 15 12 11 11 10 9 9 4 5 5 8 12 12 6 6 6 4 5 4 5 8 6 5 5 4 3
13 5 6 6 9 15 17 20 19 17 17 17 13 13 17 14 13 17 12 12 11 11 9 8 6 4 4 9 8 9 8 8 6 5 5 5 8 9 8 8 6 8 6
11 4 6 9 9 12 15 17 16 19 20 21 15 12 16 13 15 17 15 12 10 10 8 7 7 5 4 5 8 10 10 9 5 6 6 7 9 7 9 11 11 10 7
8 5 7 11 10 11 13 16 18 19 18 19 24 15 15 13 12 10 10 12 10 9 8 8 7 5 5 5 5 5 7 11 9 11 6 8 9 9 6 6 9 7 7
7 7 8 12 14 15 17 16 16 19 19 18 19 15 13 14 12 7 9 10 7 10 11 8 8 8 6 4 5 7 6 6 8 8 4 4 4 5 5 6 8 7 7
7 7 8 10 13 13 14 15 20 18 18 18 16 13 12 11 10 10 10 17 10 14 13 12 8 3 9 12 9 9 11 12 10 5 5 4 4 5 5 5 6 7 7
Wind_Direction
268 275 163 165 152 177 154 159 149 152 159 156 159 145 156 144 144 164 170 161 141 141 138 147 140 129 125 128 130 108 111 94 79 102 64 40 44 56 55 62 54 49 59
282 273 211 172 167 174 157 144 144 163 175 177 174 148 139 124 120 137 124 130 137 141 144 141 142 131 119 133 141 127 118 96 28 112 90 102 356 32 36 27 33 30 34
247 248 229 192 162 171 151 167 144 163 177 149 121 111 103 98 94 89 99 95 121 127 132 138 136 130 110 139 127 123 123 135 49 69 130 120 206 296 341 25 35 30 27
229 234 206 212 171 177 171 170 147 172 173 155 151 163 157 151 145 133 128 102 103 116 117 122 112 103 121 115 115 128 125 128 127 97 52 56 131 168 251 331 331 327 30
212 216 204 198 186 175 169 170 154 172 172 166 163 161 145 124 125 120 124 119 105 98 99 102 108 112 102 107 125 121 122 90 121 117 139 71 61 74 114 229 308 311 50
239 234 204 196 186 173 164 155 157 162 165 161 164 162 146 142 138 138 138 135 121 98 89 107 103 102 99 93 111 111 107 108 94 101 85 113 119 66 70 66 310 286 292
283 228 201 200 185 170 164 157 163 166 174 166 158 162 160 155 157 154 153 151 135 132 135 121 108 109 105 114 115 106 104 97 98 100 91 71 62 67 85 49 338 309 322
337 261 192 202 191 164 167 173 168 164 171 171 168 159 155 157 154 152 150 142 143 140 151 118 112 115 103 108 112 102 95 98 95 89 81 80 57 52 52 82 305 342 326
335 307 230 199 188 176 169 174 174 172 172 173 164 158 161 164 152 140 141 133 130 144 133 122 123 115 127 116 117 106 99 94 86 82 78 77 55 61 64 65 44 112 346
309 312 282 206 194 187 174 172 179 179 172 154 164 156 163 149 128 132 135 144 131 141 130 135 122 119 118 119 114 102 97 93 82 80 70 70 48 64 63 76 86 72 117
318 315 315 210 184 192 181 169 175 178 166 149 155 147 144 124 143 131 149 141 134 147 141 136 132 142 139 125 111 111 104 94 88 77 67 60 52 53 60 50 50 57 48
311 312 307 188 174 181 179 177 173 174 162 158 150 142 145 129 142 140 151 136 148 144 132 135 134 140 144 130 128 118 108 101 88 77 64 47 49 69 51 55 22 26 303
311 320 343 184 183 175 176 170 160 163 160 169 140 136 128 143 157 152 145 134 146 128 131 134 136 147 143 134 119 120 108 100 94 82 69 54 73 70 23 36 360 12 292
303 313 322 202 193 179 172 162 154 152 149 151 152 146 156 161 156 153 134 143 139 135 137 138 140 146 144 130 123 117 106 101 93 87 77 61 71 68 37 354 20 324 326
304 321 318 203 192 179 167 161 153 148 150 147 144 153 148 151 145 139 143 135 133 129 136 134 130 139 146 130 123 118 119 112 99 81 68 59 60 56 30 329 338 294 6
298 306 321 214 190 183 179 168 163 163 157 152 144 146 144 144 144 141 135 130 127 134 135 136 135 136 149 125 123 126 117 107 107 104 85 66 45 37 24 14 347 268 251
299 306 311 234 183 181 168 167 167 155 152 154 143 148 146 146 149 137 137 135 143 138 134 128 129 124 130 126 122 112 110 111 112 110 85 63 43 40 30 33 42 43 49
303 305 292 262 169 158 159 151 156 152 149 146 142 143 146 148 139 143 142 134 142 135 133 127 123 125 128 133 120 114 107 105 105 97 79 67 45 28 28 61 47 38 42
298 288 276 284 156 155 153 147 148 148 149 156 155 149 151 144 144 141 139 138 132 127 131 130 133 129 147 136 131 118 110 111 106 90 73 72 63 6 35 79 58 50 33
305 286 282 252 163 157 154 147 151 155 159 162 155 151 151 148 148 138 137 134 127 126 130 113 116 147 143 155 136 126 122 124 112 86 69 54 93 70 42 82 62 61 13
283 286 298 205 172 159 151 152 155 160 152 142 145 150 146 141 129 126 125 132 129 123 114 113 116 129 156 154 141 128 137 132 120 116 92 82 83 74 58 68 58 51 1
283 288 279 170 164 166 157 152 153 142 137 121 126 144 130 133 136 132 133 130 126 122 120 122 108 88 128 130 130 126 122 119 124 122 119 122 96 78 61 61 55 60 68
273 253 240 158 165 168 156 145 138 145 142 125 117 143 121 139 146 142 135 128 126 130 131 136 122 127 127 114 109 119 116 117 111 122 131 113 81 72 64 49 48 51 55
252 233 210 161 155 155 145 135 137 135 137 143 137 141 126 143 142 134 143 129 141 137 138 139 127 134 115 121 123 121 106 107 106 121 101 92 90 75 68 51 51 55 52
235 206 191 149 146 139 134 135 137 139 139 137 130 137 142 138 136 126 124 136 138 153 152 148 144 141 140 168 135 146 142 135 135 127 108 89 79 77 67 64 54 54 49
185 183 166 130 139 136 136 149 143 141 140 143 136 146 137 122 127 121 94 48 116 123 104 105 136 87 107 124 136 129 123 129 138 82 114 106 101 93 77 62 66 51 47